<?xml version="1.0" encoding="UTF-8" standalone="no" ?>
<gpx xmlns="http://www.topografix.com/GPX/1/1" xmlns:xsi="http://www.w3.org/2001/XMLSchema-instance" xsi:schemaLocation="http://www.topografix.com/GPX/1/1 http://www.topografix.com/GPX/1/1/gpx.xsd" version="1.1" creator="VisuGPX - https://www.visugpx.com">
  <metadata>
    <name>projet otsi rochers d'angennes</name>
    <desc><![CDATA[Projet otsi départ et arrivée Poigny la foret sens contraire d'une montre 
]]></desc>
  </metadata>
  <trk>
    <name><![CDATA[20180519132645-W85pE]]></name>
    <trkseg>
      <trkpt lat="48.66986" lon="1.7973">
        <ele>152</ele>
        <time>1990-01-01T01:00:00Z</time>
      </trkpt>
      <trkpt lat="48.66312" lon="1.78552">
        <ele>171</ele>
        <time>1990-01-01T01:00:00Z</time>
      </trkpt>
      <trkpt lat="48.66618" lon="1.77986">
        <ele>170</ele>
        <time>1990-01-01T01:00:00Z</time>
      </trkpt>
      <trkpt lat="48.66734" lon="1.77917">
        <ele>167</ele>
        <time>1990-01-01T01:00:00Z</time>
      </trkpt>
      <trkpt lat="48.66779" lon="1.77831">
        <ele>165</ele>
        <time>1990-01-01T01:00:00Z</time>
      </trkpt>
      <trkpt lat="48.66833" lon="1.77762">
        <ele>164</ele>
        <time>1990-01-01T01:00:00Z</time>
      </trkpt>
      <trkpt lat="48.66704" lon="1.77003">
        <ele>174</ele>
        <time>1990-01-01T01:00:00Z</time>
      </trkpt>
      <trkpt lat="48.66279" lon="1.75861">
        <ele>180</ele>
        <time>1990-01-01T01:00:00Z</time>
      </trkpt>
      <trkpt lat="48.65949" lon="1.75322">
        <ele>175</ele>
        <time>1990-01-01T01:00:00Z</time>
      </trkpt>
      <trkpt lat="48.65627" lon="1.74807">
        <ele>176</ele>
      </trkpt>
      <trkpt lat="48.65673" lon="1.74773">
        <ele>177</ele>
        <time>1990-01-01T01:00:00Z</time>
      </trkpt>
      <trkpt lat="48.65724" lon="1.74652">
        <ele>173</ele>
      </trkpt>
      <trkpt lat="48.65737" lon="1.74584">
        <ele>173</ele>
        <time>1990-01-01T01:00:00Z</time>
      </trkpt>
      <trkpt lat="48.65786" lon="1.74502">
        <ele>172</ele>
        <time>1990-01-01T01:00:00Z</time>
      </trkpt>
      <trkpt lat="48.65815" lon="1.74488">
        <ele>171</ele>
        <time>1990-01-01T01:00:00Z</time>
      </trkpt>
      <trkpt lat="48.65828" lon="1.74451">
        <ele>171</ele>
        <time>1990-01-01T01:00:00Z</time>
      </trkpt>
      <trkpt lat="48.65994" lon="1.74388">
        <ele>171</ele>
        <time>1990-01-01T01:00:00Z</time>
      </trkpt>
      <trkpt lat="48.66187" lon="1.73987">
        <ele>174</ele>
        <time>1990-01-01T01:00:00Z</time>
      </trkpt>
      <trkpt lat="48.66299" lon="1.74045">
        <ele>169</ele>
        <time>1990-01-01T01:00:00Z</time>
      </trkpt>
      <trkpt lat="48.66572" lon="1.73506">
        <ele>145</ele>
        <time>1990-01-01T01:00:00Z</time>
      </trkpt>
      <trkpt lat="48.66597" lon="1.73593">
        <ele>150</ele>
        <time>1990-01-01T01:00:00Z</time>
      </trkpt>
      <trkpt lat="48.66658" lon="1.73593">
        <ele>158</ele>
        <time>1990-01-01T01:00:00Z</time>
      </trkpt>
      <trkpt lat="48.66694" lon="1.73718">
        <ele>170</ele>
        <time>1990-01-01T01:00:00Z</time>
      </trkpt>
      <trkpt lat="48.66791" lon="1.73771">
        <ele>174</ele>
        <time>1990-01-01T01:00:00Z</time>
      </trkpt>
      <trkpt lat="48.67019" lon="1.73501">
        <ele>166</ele>
        <time>1990-01-01T01:00:00Z</time>
      </trkpt>
      <trkpt lat="48.67037" lon="1.73511">
        <ele>167</ele>
        <time>1990-01-01T01:00:00Z</time>
      </trkpt>
      <trkpt lat="48.67048" lon="1.73443">
        <ele>161</ele>
        <time>1990-01-01T01:00:00Z</time>
      </trkpt>
      <trkpt lat="48.67081" lon="1.73395">
        <ele>155</ele>
        <time>1990-01-01T01:00:00Z</time>
      </trkpt>
      <trkpt lat="48.67136" lon="1.73445">
        <ele>158</ele>
        <time>1990-01-01T01:00:00Z</time>
      </trkpt>
      <trkpt lat="48.67159" lon="1.73523">
        <ele>164</ele>
      </trkpt>
      <trkpt lat="48.67192" lon="1.73549">
        <ele>158</ele>
        <time>1990-01-01T01:00:00Z</time>
      </trkpt>
      <trkpt lat="48.67218" lon="1.73682">
        <ele>160</ele>
        <time>1990-01-01T01:00:00Z</time>
      </trkpt>
      <trkpt lat="48.672" lon="1.738">
        <ele>160</ele>
        <time>1990-01-01T01:00:00Z</time>
      </trkpt>
      <trkpt lat="48.67245" lon="1.73797">
        <ele>156</ele>
      </trkpt>
      <trkpt lat="48.67275" lon="1.7383">
        <ele>149</ele>
        <time>1990-01-01T01:00:00Z</time>
      </trkpt>
      <trkpt lat="48.67332" lon="1.73606">
        <ele>150</ele>
        <time>1990-01-01T01:00:00Z</time>
      </trkpt>
      <trkpt lat="48.67368" lon="1.73547">
        <ele>159</ele>
        <time>1990-01-01T01:00:00Z</time>
      </trkpt>
      <trkpt lat="48.67374" lon="1.73401">
        <ele>166</ele>
      </trkpt>
      <trkpt lat="48.67405" lon="1.73401">
        <ele>169</ele>
      </trkpt>
      <trkpt lat="48.67461" lon="1.73333">
        <ele>170</ele>
      </trkpt>
      <trkpt lat="48.67494" lon="1.73241">
        <ele>169</ele>
      </trkpt>
      <trkpt lat="48.67578" lon="1.73328">
        <ele>173</ele>
      </trkpt>
      <trkpt lat="48.67683" lon="1.73341">
        <ele>177</ele>
        <time>1990-01-01T01:00:00Z</time>
      </trkpt>
      <trkpt lat="48.67756" lon="1.73365">
        <ele>179</ele>
        <time>1990-01-01T01:00:00Z</time>
      </trkpt>
      <trkpt lat="48.67854" lon="1.73469">
        <ele>179</ele>
        <time>1990-01-01T01:00:00Z</time>
      </trkpt>
      <trkpt lat="48.68205" lon="1.73983">
        <ele>166</ele>
        <time>1990-01-01T01:00:00Z</time>
      </trkpt>
      <trkpt lat="48.68303" lon="1.74529">
        <ele>160</ele>
        <time>1990-01-01T01:00:00Z</time>
      </trkpt>
      <trkpt lat="48.68382" lon="1.74581">
        <ele>154</ele>
        <time>1990-01-01T01:00:00Z</time>
      </trkpt>
      <trkpt lat="48.68423" lon="1.74538">
        <ele>154</ele>
        <time>1990-01-01T01:00:00Z</time>
      </trkpt>
      <trkpt lat="48.68549" lon="1.74462">
        <ele>156</ele>
        <time>1990-01-01T01:00:00Z</time>
      </trkpt>
      <trkpt lat="48.6858" lon="1.74394">
        <ele>155</ele>
        <time>1990-01-01T01:00:00Z</time>
      </trkpt>
      <trkpt lat="48.68593" lon="1.74299">
        <ele>157</ele>
        <time>1990-01-01T01:00:00Z</time>
      </trkpt>
      <trkpt lat="48.68642" lon="1.74278">
        <ele>157</ele>
        <time>1990-01-01T01:00:00Z</time>
      </trkpt>
      <trkpt lat="48.68691" lon="1.74277">
        <ele>159</ele>
        <time>1990-01-01T01:00:00Z</time>
      </trkpt>
      <trkpt lat="48.68713" lon="1.74184">
        <ele>156</ele>
      </trkpt>
      <trkpt lat="48.69063" lon="1.73618">
        <ele>174</ele>
      </trkpt>
      <trkpt lat="48.69171" lon="1.7402">
        <ele>162</ele>
      </trkpt>
      <trkpt lat="48.69252" lon="1.74344">
        <ele>159</ele>
      </trkpt>
      <trkpt lat="48.69307" lon="1.74586">
        <ele>168</ele>
      </trkpt>
      <trkpt lat="48.69438" lon="1.75069">
        <ele>168</ele>
      </trkpt>
      <trkpt lat="48.69201" lon="1.75163">
        <ele>170</ele>
      </trkpt>
      <trkpt lat="48.69079" lon="1.75228">
        <ele>158</ele>
      </trkpt>
      <trkpt lat="48.68962" lon="1.75292">
        <ele>155</ele>
      </trkpt>
      <trkpt lat="48.68922" lon="1.75361">
        <ele>156</ele>
      </trkpt>
      <trkpt lat="48.68834" lon="1.75789">
        <ele>164</ele>
      </trkpt>
      <trkpt lat="48.68759" lon="1.7617">
        <ele>164</ele>
        <time>1990-01-01T01:00:00Z</time>
      </trkpt>
      <trkpt lat="48.6873" lon="1.76666">
        <ele>156</ele>
        <time>1990-01-01T01:00:00Z</time>
      </trkpt>
      <trkpt lat="48.68708" lon="1.77045">
        <ele>152</ele>
        <time>1990-01-01T01:00:00Z</time>
      </trkpt>
      <trkpt lat="48.68711" lon="1.77123">
        <ele>152</ele>
      </trkpt>
      <trkpt lat="48.68804" lon="1.77288">
        <ele>158</ele>
        <time>1990-01-01T01:00:00Z</time>
      </trkpt>
      <trkpt lat="48.68838" lon="1.77423">
        <ele>163</ele>
        <time>1990-01-01T01:00:00Z</time>
      </trkpt>
      <trkpt lat="48.6887" lon="1.77532">
        <ele>165</ele>
        <time>1990-01-01T01:00:00Z</time>
      </trkpt>
      <trkpt lat="48.68918" lon="1.7763">
        <ele>171</ele>
        <time>1990-01-01T01:00:00Z</time>
      </trkpt>
      <trkpt lat="48.68972" lon="1.77731">
        <ele>174</ele>
        <time>1990-01-01T01:00:00Z</time>
      </trkpt>
      <trkpt lat="48.68988" lon="1.77825">
        <ele>176</ele>
        <time>1990-01-01T01:00:00Z</time>
      </trkpt>
      <trkpt lat="48.69005" lon="1.7795">
        <ele>178</ele>
        <time>1990-01-01T01:00:00Z</time>
      </trkpt>
      <trkpt lat="48.69035" lon="1.78087">
        <ele>181</ele>
        <time>1990-01-01T01:00:00Z</time>
      </trkpt>
      <trkpt lat="48.68878" lon="1.782">
        <ele>184</ele>
        <time>1990-01-01T01:00:00Z</time>
      </trkpt>
      <trkpt lat="48.68819" lon="1.78126">
        <ele>182</ele>
        <time>1990-01-01T01:00:00Z</time>
      </trkpt>
      <trkpt lat="48.68741" lon="1.78061">
        <ele>182</ele>
        <time>1990-01-01T01:00:00Z</time>
      </trkpt>
      <trkpt lat="48.68648" lon="1.78023">
        <ele>180</ele>
        <time>1990-01-01T01:00:00Z</time>
      </trkpt>
      <trkpt lat="48.68373" lon="1.78364">
        <ele>178</ele>
        <time>1990-01-01T01:00:00Z</time>
      </trkpt>
      <trkpt lat="48.68382" lon="1.78386">
        <ele>179</ele>
        <time>1990-01-01T01:00:00Z</time>
      </trkpt>
      <trkpt lat="48.68176" lon="1.78894">
        <ele>179</ele>
        <time>1990-01-01T01:00:00Z</time>
      </trkpt>
      <trkpt lat="48.68126" lon="1.79846">
        <ele>185</ele>
      </trkpt>
      <trkpt lat="48.67706" lon="1.79415">
        <ele>160</ele>
      </trkpt>
      <trkpt lat="48.67325" lon="1.79287">
        <ele>156</ele>
      </trkpt>
      <trkpt lat="48.67021" lon="1.79655">
        <ele>153</ele>
      </trkpt>
    </trkseg>
  </trk>
</gpx>